User: anonymous   Login
Location: Unspecified
(0.0000°N, 0.0000°E)
Time: 17:27:30
(UTC+00:00)
Language:

Oscar 19 - Orbit

View from above orbital plane
View from above orbital plane
View from above satellite
View from above satellite

Ground track
Ground track

The orbit data is extracted from the following two-line orbital elements,

1 20442U 90005G   18115.77117613  .00000008  00000-0  19081-4 0  9996
2 20442  98.6067  54.5955 0010875 309.0805  50.9411 14.32893340476384
Epoch (UTC): 25 April 2018 18:30:29
Eccentricity: 0.0010875
inclination: 98.6067°
perigee height: 774 km
apogee height: 790 km
right ascension of ascending node: 54.5955°
argument of perigee: 309.0805°
revolutions per day: 14.32893340
mean anomaly at epoch: 50.9411°
orbit number at epoch: 47638

The dashed part of the orbit path shows where the satellite is in the earth's shadow,  

DLR